This demonstration page uses our WeatherBlox Daily Observations layout. Learn more.

Left ArrowRight Arrow

Hourly Observations for January 8, 2022

Temp ( °F °C ) Dew Point ( °F °C ) Humidity (%) Winds ( mph kmh ) Pressure ( in mb ) Visibility ( mi km ) Precip ( " mm )
12:54 am 00:54 Clear 18 -7.8 11 -11.7 74 74 S 15 24 29.92 1013 10 16 0.00 0.00
1:54 am 01:54 Clear 18 -7.8 11 -11.7 74 74 SSE 12 19 29.89 1012 10 16 0.00 0.00
2:54 am 02:54 Clear 17 -8.3 11 -11.7 77 77 SSE 10 17 29.87 1012 10 16 0.00 0.00
3:54 am 03:54 Clear 17 -8.3 12 -11.1 80 80 S 9 15 29.85 1011 10 16 0.00 0.00
4:54 am 04:54 Clear 17 -8.3 13 -10.6 84 84 S 3 6 29.85 1011 10 16 0.00 0.00
5:54 am 05:54 Clear 16 -8.9 11 -11.7 80 80 S 6 9 29.85 1011 10 16 0.00 0.00
6:54 am 06:54 Clear 17 -8.3 13 -10.6 84 84 S 6 9 29.84 1011 10 16 0.00 0.00
7:44 am 07:44 Mostly Cloudy 19 -7.2 15 -9.4 84 84 SSW 3 6 29.89 1012 10 16 0.00 0.00
7:54 am 07:54 Mostly Cloudy 19 -7.2 14 -10 81 81 S 3 6 29.85 1011 10 16 0.00 0.00
8:54 am 08:54 Cloudy 23 -5 19 -7.2 85 85 S 3 6 29.84 1011 9 14 0.00 0.00
9:54 am 09:54 Cloudy with Mist and Fog 30 -1.1 26 -3.3 85 85 S 8 13 29.85 1011 6 10 0.00 0.00
10:54 am 10:54 Cloudy 33 0.6 27 -2.8 78 78 SSW 12 19 29.85 1011 7 11 0.00 0.00
11:54 am 11:54 Cloudy 35 1.7 29 -1.7 78 78 S 14 22 29.81 1010 8 13 0.00 0.00
12:03 pm 12:03 Cloudy 35 1.7 29 -1.7 78 78 SSW 12 19 29.82 1010 8 13 0.00 0.00
12:54 pm 12:54 Cloudy 37 2.8 29 -1.7 73 73 SSW 12 19 29.80 1009 9 14 0.00 0.00
1:54 pm 13:54 Cloudy 38 3.3 29 -1.7 70 70 SSW 12 19 29.78 1008 9 14 0.00 0.00
2:27 pm 14:27 Cloudy 37 2.8 29 -1.7 73 73 WSW 9 15 29.80 1009 9 14 0.00 0.00
2:54 pm 14:54 Mostly Cloudy 38 3.3 29 -1.7 70 70 SSW 8 13 29.80 1009 9 14 0.00 0.00
3:08 pm 15:08 Mostly Sunny 39 3.9 29 -1.7 67 67 SW 7 11 29.82 1010 9 14 0.00 0.00
3:54 pm 15:54 Sunny 38 3.3 29 -1.7 70 70 SW 6 9 29.84 1011 9 14 0.00 0.00
4:54 pm 16:54 Sunny 37 2.8 29 -1.7 73 73 SSW 3 6 29.88 1012 9 14 0.00 0.00
5:54 pm 17:54 Clear 33 0.6 27 -2.8 78 78 NNW 3 6 29.94 1014 9 14 0.00 0.00
6:54 pm 18:54 Clear 38 3.3 24 -4.4 57 57 N 20 31 29.98 1015 10 16 0.00 0.00
7:54 pm 19:54 Clear 37 2.8 22 -5.6 54 54 N 26 43 30.05 1018 10 16 0.00 0.00
8:54 pm 20:54 Mostly Cloudy 33 0.6 19 -7.2 56 56 N 21 33 30.12 1020 10 16 0.00 0.00
9:54 pm 21:54 Mostly Clear 31 -0.6 17 -8.3 56 56 N 22 35 30.19 1022 10 16 0.00 0.00
10:54 pm 22:54 Cloudy 27 -2.8 10 -12.2 49 49 N 30 48 30.27 1025 10 16 0.00 0.00
11:54 pm 23:54 Partly Cloudy 23 -5 7 -13.9 50 50 N 18 30 30.34 1027 10 16 0.00 0.00

Powered by AerisWeather